Location: Bacharowice
(49.9333°N, 19.5833°E)
Time: 23:57:43
(UTC+00:00)

Cosmos 1470 - Pass Details

Date: 11 May 2021
Orbit: 521 x 540 km, 82.5° (Epoch: 21 June)

Event Time Altitude Azimuth Distance (km) Brightness Sun altitude
Rises 23:05:31 0° 358° (N) 2,680 7.8 -21.7°
Reaches altitude 10° 23:07:55 10° 11° (N) 1,788 6.6 -21.6°
Maximum altitude 23:11:19 27° 71° (ENE) 1,038 4.4 -21.5°
Enters shadow 23:12:44 22° 106° (ESE) 1,204 4.4 -21.5°
